CW8386 Weather Reports


time (UTC)temp
C
wind
direction
speed
KPH
gust
KPH
rain 1hr
cm
rain 24hr
cm
rain mn
cm
humidity
%
barometer
mb
20260502152041 -17 0.0 0.0 0.00 0.00 0.00 1019.8
20260502151603 -17 0.0 0.0 0.00 0.00 0.00 1019.8
20260502151025 -17 0.0 0.0 0.00 0.00 0.00 1019.9
20260502150526 -17 0.0 0.0 0.00 0.00 0.00 1019.9
20260502130538 -17 0.0 0.0 0.00 0.00 0.00 1019.6
20260502123526 -17 0.0 0.0 0.00 0.00 0.00 1019.4
20260502123029 -17 0.0 0.0 0.00 0.00 0.00 1019.4
20260502122551 -17 0.0 0.0 0.00 0.00 0.00 1019.4
20260502122112 -17 0.0 0.0 0.00 0.00 0.00 1019.4
20260502121613 -17 0.0 0.0 0.00 0.00 0.00 1019.4
20260502121054 -17 0.0 0.0 0.00 0.00 0.00 1019.3
20260502120555 -17 0.0 0.0 0.00 0.00 0.00 1019.3
20260502115619 -17 0.0 0.0 0.00 0.00 0.00 1019.4
20260502115101 -17 0.0 0.0 0.00 0.00 0.00 1019.4
20260502114105 -17 0.0 0.0 0.00 0.00 0.00 1019.4
20260502113525 -17 0.0 0.0 0.00 0.00 0.00 1019.4
20260502113028 -17 0.0 0.0 0.00 0.00 0.00 1019.4
20260502112551 -17 0.0 0.0 0.00 0.00 0.00 1019.4
20260502112037 -17 0.0 0.0 0.00 0.00 0.00 1019.4
20260502111559 -17 0.0 0.0 0.00 0.00 0.00 1019.4
20260502111041 -17 0.0 0.0 0.00 0.00 0.00 1019.3
20260502110623 -17 0.0 0.0 0.00 0.00 0.00 1019.2
20260502110120 -17 0.0 0.0 0.00 0.00 0.00 1019.3
20260502105600 -17 0.0 0.0 0.00 0.00 0.00 1019.3
20260502105027 -17 0.0 0.0 0.00 0.00 0.00 1019.3
20260502104548 -17 0.0 0.0 0.00 0.00 0.00 1019.3
20260502104110 -17 0.0 0.0 0.00 0.00 0.00 1019.4
20260502103550 -17 0.0 0.0 0.00 0.00 0.00 1019.4
20260502103031 -17 0.0 0.0 0.00 0.00 0.00 1019.4
20260502102534 -17 0.0 0.0 0.00 0.00 0.00 1019.5
20260502102038 -17 0.0 0.0 0.00 0.00 0.00 1019.5
20260502101601 -17 0.0 0.0 0.00 0.00 0.00 1019.5
20260502101042 -17 0.0 0.0 0.00 0.00 0.00 1019.5
20260502100604 -17 0.0 0.0 0.00 0.00 0.00 1019.5
20260502100126 -17 0.0 0.0 0.00 0.00 0.00 1019.5
20260502091026 -17 0.0 0.0 0.00 0.00 0.00 1019.7
20260502090548 -17 0.0 0.0 0.00 0.00 0.00 1019.8
20260502071050 2 360 6.4 9.7 0.00 0.00 0.00 52 1020.4
20260502070530 2 360 4.8 8.0 0.00 0.00 0.00 53 1020.3
20260502070032 2 360 0.0 9.7 0.00 0.00 0.00 54 1020.3
20260502065535 2 360 4.8 11.3 0.00 0.00 0.00 53 1020.3
20260502065038 2 360 9.7 11.3 0.00 0.00 0.00 53 1020.4
20260502064601 2 360 6.4 9.7 0.00 0.00 0.00 53 1020.4
20260502064123 2 360 4.8 6.4 0.00 0.00 0.00 53 1020.4
20260502063603 3 360 3.2 9.7 0.00 0.00 0.00 52 1020.4
20260502063104 3 360 6.4 9.7 0.00 0.00 0.00 50 1020.5
20260502062545 3 360 0.0 3.2 0.00 0.00 0.00 49 1020.5
20260502062047 3 360 0.0 6.4 0.00 0.00 0.00 49 1020.6
20260502061529 3 360 3.2 6.4 0.00 0.00 0.00 49 1020.6
20260502061037 3 360 3.2 6.4 0.00 0.00 0.00 50 1020.6
20260502060539 3 360 3.2 9.7 0.00 0.00 0.00 50 1020.7
20260502060041 4 360 6.4 9.7 0.00 0.00 0.00 48 1020.6
20260502055623 4 360 4.8 11.3 0.00 0.00 0.00 48 1020.6
20260502055123 4 360 8.0 17.7 0.00 0.00 0.00 47 1020.6
20260502054620 4 360 8.0 17.7 0.00 0.00 0.00 48 1020.6
20260502054100 4 360 9.7 14.5 0.00 0.00 0.00 48 1020.6
20260502053545 4 360 11.3 16.1 0.00 0.00 0.00 48 1020.7
20260502053104 4 360 11.3 16.1 0.00 0.00 0.00 48 1020.6
20260502052545 4 360 8.0 9.7 0.00 0.00 0.00 47 1020.6
20260502052028 5 360 6.4 9.7 0.00 0.00 0.00 46 1020.6
20260502051610 5 360 6.4 9.7 0.00 0.00 0.00 45 1020.5
20260502051050 5 360 6.4 9.7 0.00 0.00 0.00 45 1020.6
20260502050611 5 360 3.2 14.5 0.00 0.00 0.00 45 1020.6
20260502050033 5 360 9.7 16.1 0.00 0.00 0.00 45 1020.6
20260502045555 5 360 9.7 16.1 0.00 0.00 0.00 45 1020.7
20260502045057 6 360 12.9 16.1 0.00 0.00 0.00 44 1020.6
20260502044557 6 360 6.4 9.7 0.00 0.00 0.00 44 1020.6
20260502044058 6 360 6.4 9.7 0.00 0.00 0.00 44 1020.6
20260502043538 6 227 3.2 6.4 0.00 0.00 0.00 41 1020.5
20260502043040 7 360 1.6 6.4 0.00 0.00 0.00 40 1020.5
20260502042524 7 227 1.6 11.3 0.00 0.00 0.00 39 1020.5
20260502042026 7 360 8.0 11.3 0.00 0.00 0.00 40 1020.6
20260502041550 7 360 4.8 8.0 0.00 0.00 0.00 39 1020.6
20260502041111 8 360 3.2 8.0 0.00 0.00 0.00 37 1020.5
20260502040531 9 360 4.8 6.4 0.00 0.00 0.00 35 1020.5
20260502040033 9 360 3.2 4.8 0.00 0.00 0.00 35 1020.5
20260502035615 8 360 1.6 6.4 0.00 0.00 0.00 36 1020.4
20260502035056 8 360 0.0 4.8 0.00 0.00 0.00 37 1020.3
20260502034537 7 360 0.0 0.0 0.00 0.00 0.00 39 1020.3
20260502034041 7 360 0.0 0.0 0.00 0.00 0.00 39 1020.1
20260502033542 7 360 0.0 0.0 0.00 0.00 0.00 38 1020.1
20260502033045 7 360 0.0 0.0 0.00 0.00 0.00 37 1020.1
20260502032526 8 360 0.0 1.6 0.00 0.00 0.00 36 1020.1
20260502032029 8 360 0.0 4.8 0.00 0.00 0.00 37 1020.0
20260502031536 8 360 1.6 4.8 0.00 0.00 0.00 36 1019.9
20260502031100 8 227 3.2 6.4 0.00 0.00 0.00 37 1019.8
20260502030601 8 360 4.8 6.4 0.00 0.00 0.00 36 1019.7
20260502030042 9 360 3.2 6.4 0.00 0.00 0.00 35 1019.6
20260502025625 9 360 4.8 6.4 0.00 0.00 0.00 35 1019.5
20260502025106 9 360 3.2 8.0 0.00 0.00 0.00 35 1019.4
20260502024547 9 360 6.4 11.3 0.00 0.00 0.00 35 1019.3
20260502024028 10 360 6.4 11.3 0.00 0.00 0.00 35 1019.3
20260502023550 10 360 11.3 11.3 0.00 0.00 0.00 34 1019.1
20260502023031 10 360 8.0 9.7 0.00 0.00 0.00 33 1019.0
20260502022533 10 360 8.0 9.7 0.00 0.00 0.00 34 1019.0
20260502022035 11 360 0.0 0.0 0.00 0.00 0.00 32 1018.9
20260502021559 12 360 0.0 0.0 0.00 0.00 0.00 30 1018.8
20260502021041 14 360 0.0 0.0 0.00 0.00 0.00 28 1018.8
20260502020602 16 360 0.0 0.0 0.00 0.00 0.00 25 1018.8
20260502020043 17 360 0.0 0.0 0.00 0.00 0.00 23 1018.7
20260502015546 17 360 0.0 0.0 0.00 0.00 0.00 23 1018.8
20260502015048 17 360 0.0 0.0 0.00 0.00 0.00 22 1018.8
20260502014549 18 360 0.0 0.0 0.00 0.00 0.00 21 1018.8
20260502014031 18 360 0.0 0.0 0.00 0.00 0.00 21 1018.9
20260502013532 18 360 0.0 0.0 0.00 0.00 0.00 21 1018.8
20260502013055 18 360 0.0 0.0 0.00 0.00 0.00 20 1018.8
20260502012536 18 360 0.0 0.0 0.00 0.00 0.00 21 1018.8
20260502012039 18 360 0.0 0.0 0.00 0.00 0.00 20 1018.9
20260502011525 18 360 0.0 0.0 0.00 0.00 0.00 21 1018.9
20260502011049 18 360 0.0 0.0 0.00 0.00 0.00 21 1019.0
20260502010529 18 360 0.0 0.0 0.00 0.00 0.00 21 1018.9
20260502010052 18 360 0.0 1.6 0.00 0.00 0.00 21 1018.9
20260502005533 18 360 0.0 1.6 0.00 0.00 0.00 21 1019.0
20260502004556 18 360 0.0 9.7 0.00 0.00 0.00 21 1018.9
20260502004100 18 360 0.0 0.0 0.00 0.00 0.00 21 1019.0
20260502003540 18 360 0.0 0.0 0.00 0.00 0.00 21 1018.9
20260502003042 18 360 0.0 0.0 0.00 0.00 0.00 21 1019.0
20260502002525 18 360 0.0 8.0 0.00 0.00 0.00 21 1019.0
20260502002047 18 360 1.6 8.0 0.00 0.00 0.00 21 1019.0
20260502001529 18 360 0.0 1.6 0.00 0.00 0.00 21 1019.1
20260502001051 18 360 0.0 3.2 0.00 0.00 0.00 21 1019.1
20260502000531 18 360 0.0 3.2 0.00 0.00 0.00 21 1019.1
20260502000114 18 360 0.0 6.4 0.00 0.00 0.00 22 1019.1
20260501235535 18 360 0.0 9.7 0.00 0.00 0.00 22 1019.1
20260501235058 18 360 0.0 11.3 0.00 0.00 0.00 21 1019.2
20260501234041 18 360 3.2 14.5 0.00 0.00 0.00 21 1019.1
20260501233541 19 360 3.2 9.7 0.00 0.00 0.00 21 1019.2
20260501233043 19 360 3.2 9.7 0.00 0.00 0.00 21 1019.2
20260501232606 19 360 0.0 1.6 0.00 0.00 0.00 22 1019.2
20260501232047 19 360 0.0 8.0 0.00 0.00 0.00 21 1019.2
20260501231548 18 360 0.0 17.7 0.00 0.00 0.00 22 1019.3
20260501231052 18 360 9.7 17.7 0.00 0.00 0.00 22 1019.3
20260501230552 18 360 3.2 19.3 0.00 0.00 0.00 22 1019.3
20260501230034 18 360 1.6 19.3 0.00 0.00 0.00 22 1019.2
20260501225537 19 360 0.0 4.8 0.00 0.00 0.00 22 1019.3
20260501225120 18 360 0.0 0.0 0.00 0.00 0.00 21 1019.3
20260501224601 18 360 0.0 16.1 0.00 0.00 0.00 21 1019.3
20260501224105 18 360 3.2 16.1 0.00 0.00 0.00 21 1019.4
20260501223524 19 360 0.0 16.1 0.00 0.00 0.00 21 1019.5
20260501223025 19 360 0.0 0.0 0.00 0.00 0.00 22 1019.5
20260501222527 19 360 0.0 0.0 0.00 0.00 0.00 22 1019.5
20260501222050 18 360 0.0 0.0 0.00 0.00 0.00 21 1019.6
20260501221552 18 360 0.0 17.7 0.00 0.00 0.00 22 1019.7
20260501221053 18 360 8.0 17.7 0.00 0.00 0.00 22 1019.7
20260501220537 18 360 0.0 17.7 0.00 0.00 0.00 22 1019.7
20260501220059 18 360 4.8 17.7 0.00 0.00 0.00 23 1019.9
20260501215616 17 360 1.6 25.7 0.00 0.00 0.00 21 1019.9
20260501215041 18 360 12.9 25.7 0.00 0.00 0.00 22 1020.0
20260501214620 18 360 4.8 17.7 0.00 0.00 0.00 22 1020.0
20260501214046 18 360 8.0 17.7 0.00 0.00 0.00 21 1019.2
20260501213125 18 360 0.0 16.1 0.00 0.00 0.00 22 1019.4
20260501212045 18 360 0.0 16.1 0.00 0.00 0.00 22 1019.6
20260501211547 17 360 0.0 19.3 0.00 0.00 0.00 23 1019.7
20260501211048 17 360 6.4 22.5 0.00 0.00 0.00 22 1019.7
20260501210530 17 360 8.0 22.5 0.00 0.00 0.00 23 1019.8
20260501205533 17 360 0.0 4.8 0.00 0.00 0.00 22 1020.0
20260501205034 17 360 0.0 4.8 0.00 0.00 0.00 23 1020.1
20260501204558 17 360 0.0 6.4 0.00 0.00 0.00 22 1020.2
20260501204038 17 360 0.0 19.3 0.00 0.00 0.00 23 1020.3
20260501203540 17 360 6.4 19.3 0.00 0.00 0.00 23 1020.2
20260501203104 17 360 0.0 16.1 0.00 0.00 0.00 22 1020.3
20260501202530 17 360 0.0 16.1 0.00 0.00 0.00 23 1020.4
20260501202053 17 360 0.0 12.9 0.00 0.00 0.00 23 1020.4
20260501201534 17 360 3.2 12.9 0.00 0.00 0.00 23 1020.5
20260501201037 17 360 0.0 11.3 0.00 0.00 0.00 23 1020.6
20260501200539 17 360 0.0 11.3 0.00 0.00 0.00 25 1020.6
20260501195524 16 360 0.0 11.3 0.00 0.00 0.00 26 1020.6
20260501195027 16 360 4.8 17.7 0.00 0.00 0.00 26 1020.7
20260501194031 16 360 3.2 16.1 0.00 0.00 0.00 26 1020.6
20260501193533 16 360 0.0 17.7 0.00 0.00 0.00 27 1020.8
20260501193114 16 360 1.6 19.3 0.00 0.00 0.00 27 1020.9
20260501192535 16 360 1.6 17.7 0.00 0.00 0.00 27 1020.9
20260501192058 16 360 6.4 17.7 0.00 0.00 0.00 27 1021.0
20260501191600 16 360 0.0 16.1 0.00 0.00 0.00 27 1021.0
20260501191101 16 360 4.8 16.1 0.00 0.00 0.00 27 1021.1
20260501190542 16 360 0.0 17.7 0.00 0.00 0.00 27 1021.2
20260501190044 16 360 8.0 17.7 0.00 0.00 0.00 27 1021.2
20260501185526 16 360 6.4 11.3 0.00 0.00 0.00 27 1021.3
20260501185029 16 360 1.6 9.7 0.00 0.00 0.00 27 1021.2
20260501184552 16 360 0.0 4.8 0.00 0.00 0.00 27 1021.3
20260501183531 15 360 0.0 6.4 0.00 0.00 0.00 28 1021.4
20260501183055 15 360 1.6 16.1 0.00 0.00 0.00 29 1021.6
20260501182535 15 360 6.4 16.1 0.00 0.00 0.00 29 1021.6
20260501182037 15 360 4.8 11.3 0.00 0.00 0.00 29 1021.6
20260501181543 15 360 1.6 8.0 0.00 0.00 0.00 29 1021.6
20260501180600 15 360 0.0 30.6 0.00 0.00 0.00 30 1021.7
20260501175544 15 360 0.0 0.0 0.00 0.00 0.00 29 1021.8
20260501175029 15 360 0.0 9.7 0.00 0.00 0.00 30 1021.9
20260501174551 15 360 3.2 11.3 0.00 0.00 0.00 30 1022.0
20260501174109 14 360 1.6 16.1 0.00 0.00 0.00 31 1021.9
20260501173549 14 360 0.0 16.1 0.00 0.00 0.00 30 1022.0
20260501173034 14 360 3.2 11.3 0.00 0.00 0.00 30 1022.0
20260501172538 14 360 0.0 0.0 0.00 0.00 0.00 30 1022.0
20260501172040 14 360 0.0 0.0 0.00 0.00 0.00 30 1021.9
20260501171623 14 360 0.0 1.6 0.00 0.00 0.00 30 1022.0
20260501171043 14 360 0.0 1.6 0.00 0.00 0.00 30 1022.0
20260501170545 13 360 0.0 0.0 0.00 0.00 0.00 31 1022.1
20260501170026 13 360 0.0 0.0 0.00 0.00 0.00 31 1022.0
20260501165528 13 360 0.0 0.0 0.00 0.00 0.00 30 1022.0
20260501165050 13 360 0.0 0.0 0.00 0.00 0.00 32 1022.0
20260501164531 13 360 0.0 0.0 0.00 0.00 0.00 33 1022.0
20260501164055 12 360 0.0 0.0 0.00 0.00 0.00 33 1022.0
20260501163556 13 360 0.0 0.0 0.00 0.00 0.00 33 1022.0
20260501163038 12 360 0.0 0.0 0.00 0.00 0.00 33 1022.0
20260501162540 -17 0.0 0.0 0.00 0.00 0.00 1021.9
20260501162104 -17 0.0 0.0 0.00 0.00 0.00 1021.8
20260501161546 -17 0.0 0.0 0.00 0.00 0.00 1021.9
20260501161048 -17 0.0 0.0 0.00 0.00 0.00 1021.9
20260501160528 -17 0.0 0.0 0.00 0.00 0.00 1021.9